[Date Prev][Date Next][Thread Prev][Thread Next] - [Date Index][Thread Index][Author Index]

2 Line ISS Keps 6-25



ISS
1 25544U 98067A   02176.10405093  .00023482  00000-0  31130-3 0  5972
2 25544  51.6385  13.2062 0006849 278.3906 214.3449 15.58124792205262


----
Via the sarex mailing list at AMSAT.ORG courtesy of AMSAT-NA.
To unsubscribe, send "unsubscribe sarex" to Majordomo@amsat.org



AMSAT Top AMSAT Home